Retour au catalogue

STARLINK-5153

ActifCommunicationsVLEO
NORAD 54088·PAYLOAD·🇺🇸 United States

Lancé Oct 20, 2022 depuis Cape Canaveral Space Force Station

Loading…

Prochains Passages (prochaines 24 heures)

TLE

FraisSource: CelesTrak SupGP

Époque: Sep 15, 2026, 02:01 UTC

1 54088C 22136AP  26258.08451389  .00618170  00000+0  22757-1 0  2584
2 54088  53.1609 202.4942 0001237  89.3888  42.1566 15.27005422    14

Suivez STARLINK-5153 en temps réel avec AllMySat

Download on the App Store